WetterOnline ( http://www.wetteronline.de )

Wetter aktuell Döttesfeld

Aktuelles Wetter: Andernach (75m)

6-stündlich | Neueste Meldungen
Ortszeit Temperatur Wetter
Fr, 17.11. 13:00 7.2° C bedeckt
Fr, 17.11. 7:00 5.1° C Sprühregen
Fr, 17.11. 1:00 5.7° C Sprühregen
Do, 16.11. 19:00 5.6° C bedeckt
Ortszeit Temperatur Wetter
Fr, 17.11. 18:30 6.8° C bedeckt
Fr, 17.11. 18:00 7.9° C bedeckt
Fr, 17.11. 17:30 7.8° C bedeckt
Fr, 17.11. 17:00 8.0° C bedeckt
Fr, 17.11. 16:30 8.4° C bewölkt
Fr, 17.11. 16:00 8.6° C bewölkt
Ortszeit Relative Feuchte Sichtweite
Fr, 17.11. 13:00 93% 4.2 km
Fr, 17.11. 7:00 96% 3.2 km
Fr, 17.11. 1:00 91% 13 km
Do, 16.11. 19:00 86% 20 km
Ortszeit Relative Feuchte Sichtweite
Fr, 17.11. 18:30 87% 16 km
Fr, 17.11. 18:00 81% 24 km
Fr, 17.11. 17:30 87% 16 km
Fr, 17.11. 17:00 82% 20 km
Fr, 17.11. 16:30 82% 16 km
Fr, 17.11. 16:00 81% 16 km
Ortszeit Niederschlagsmenge Niederschlagsart
Fr, 17.11. 13:00 0.1 l/m2 in 6 Std. Regen
Fr, 17.11. 7:00 1 l/m2 in 12 Std. Regen
Fr, 17.11. 1:00 0.3 l/m2 in 6 Std. Regen
Do, 16.11. 19:00 0.0 l/m2 in 12 Std. -
Ortszeit Niederschlagsmenge Niederschlagsart
Fr, 17.11. 18:30 keine Meldung -
Fr, 17.11. 18:00 0.0 l/m2 in 1 Std. -
Fr, 17.11. 17:30 keine Meldung -
Fr, 17.11. 17:00 0.0 l/m2 in 1 Std. -
Fr, 17.11. 16:30 keine Meldung -
Fr, 17.11. 16:00 0.0 l/m2 in 1 Std. -
Ortszeit Stärke Spitze Richtung
km/h Bft. km/h Grad Sektor
Fr, 17.11. 13:00 4 1 7 110° O
Fr, 17.11. 7:00 0 0 11 - -
Fr, 17.11. 1:00 4 1 11 190° S
Do, 16.11. 19:00 4 1 14 120° SO
Ortszeit Stärke Spitze Richtung
km/h Bft. km/h Grad Sektor
Fr, 17.11. 18:30 4 1 7 210° SW
Fr, 17.11. 18:00 6 1 11 340° N
Fr, 17.11. 17:30 7 2 11 350° N
Fr, 17.11. 17:00 0 0 11 - -
Fr, 17.11. 16:30 4 1 11 260° W
Fr, 17.11. 16:00 4 1 7 270° W
Ortszeit Untergrenze Bedeckung Gattung
total tief tief mittel hoch
Fr, 17.11. 13:00 60 m 8/8 8/8 - - -
Fr, 17.11. 7:00 240 m 7/8 7/8 - - -
Fr, 17.11. 1:00 300 m 8/8 8/8 - - -
Do, 16.11. 19:00 1020 m 8/8 8/8 - - -
Ortszeit Bedeckungsgrad in Achtel und Wolkenuntergrenze
Fr, 17.11. 18:30 8(1440m)
Fr, 17.11. 18:00 8(1500m)
Fr, 17.11. 17:30 8(1500m)
Fr, 17.11. 17:00 8(1500m)
Fr, 17.11. 16:30 2(660m) 7(1500m) 8(8100m)
Fr, 17.11. 16:00 6(540m) 7(1500m) 8(7500m)
Ortszeit Luftdruck NN (hPa) Tendenz (hPa in 3 Std.)
Fr, 17.11. 13:00 1027 - 0,3
Fr, 17.11. 7:00 1026 + 0,6
Fr, 17.11. 1:00 1026 + 0,2
Do, 16.11. 19:00 1025 + 0,2
Ortszeit Luftdruck NN (hPa) Tendenz (hPa in 3 Std.)
Fr, 17.11. 18:30 1027 - 0,1
Fr, 17.11. 18:00 1027 - 0,2
Fr, 17.11. 17:30 1027 - 0,1
Fr, 17.11. 17:00 1027 - 0,5
Fr, 17.11. 16:30 1027 - 0,3
Fr, 17.11. 16:00 1027 - 0,5
Ortszeit Schneehöhe (cm)
Fr, 17.11. 13:00 0
Fr, 17.11. 7:00 0
Fr, 17.11. 1:00 0
Do, 16.11. 19:00 0
Ortszeit Schneehöhe (cm)
Fr, 17.11. 18:30 0
Fr, 17.11. 18:00 0
Fr, 17.11. 17:30 0
Fr, 17.11. 17:00 0
Fr, 17.11. 16:30 0
Fr, 17.11. 16:00 0
Link zu dieser Seite / Seite empfehlen

Das Wetter in ...